Bookmark and Share
Track history (hours):
 

Callsign BAREU51 (name unknown)

Last reported at 2014-Apr-23 17:00 UTC. Time now 2014-Apr-23 19:10 UTC.
Position N 44°24' E 008°54'.

Barometer 1015.3 mb
Air temperature 19.1 ° C

NotesDate/timePositionNaut miles runAvg speedWind from/ knotsBaromVisibWave heightAir tempDewpointWater temp
2014-Apr-23 17:00N 44°24' E 008°54'1312.7 1015.3 19.1
2014-Apr-23 16:00N 44°12' E 009°00'2020.0 1013.7 18.2
2014-Apr-23 15:00N 43°54' E 009°12'2625.5 1014.4 18.1
2014-Apr-23 14:00N 43°30' E 009°24'2424.4 1014.7 17.6
2014-Apr-23 13:00N 43°06' E 009°30'2020.0 1014.8 17.3
2014-Apr-23 12:00N 42°48' E 009°42'2625.6 1014.8 18.9
2014-Apr-23 11:00N 42°24' E 009°54'2222.4 1014.7 18.9
2014-Apr-23 10:00N 42°06' E 010°12'2020.1 1014.7 17.9
2014-Apr-23 09:00N 41°48' E 010°24'2222.5 1014.2 17.6
2014-Apr-23 08:00N 41°30' E 010°42'2827.5 1014.2 16.6
2014-Apr-23 07:00N 41°06' E 011°00'2020.2 1013.7 16.1
2014-Apr-23 06:00N 40°48' E 011°12'2322.6 1013.3 15.5
2014-Apr-23 05:00N 40°30' E 011°30'2322.6 1013.2 15.6
2014-Apr-23 04:00N 40°12' E 011°48'2020.2 1012.2 15.7
2014-Apr-23 03:00N 39°54' E 012°00'2322.7 1012.1 15.8
2014-Apr-23 02:00N 39°36' E 012°18'2827.7 1011.6 16.1
2014-Apr-23 01:00N 39°12' E 012°36'2020.3 1012.5 16.0
2014-Apr-23 00:00N 38°54' E 012°48'2322.8 1013.2 15.9
2014-Apr-22 23:00N 38°36' E 013°06'2322.9 1013.8 15.9
2014-Apr-22 22:00N 38°18' E 013°24'6 1.0 1015.0 16.6
2014-Apr-22 16:00N 38°12' E 013°24'4824.1 1009.8 16.6
2014-Apr-22 14:00N 38°54' E 012°54'2322.8 1008.4 16.5
2014-Apr-22 13:00N 39°12' E 012°36'2322.8 1009.6 17.2
2014-Apr-22 12:00N 39°30' E 012°18'2020.2 1011.4 17.8
2014-Apr-22 11:00N 39°48' E 012°06'2827.7 1010.9 18.0
2014-Apr-22 10:00N 40°12' E 011°48'2322.6 1011.3 17.7
2014-Apr-22 09:00N 40°30' E 011°30'2020.2 1011.4 17.2
2014-Apr-22 08:00N 40°48' E 011°18'2322.6 1011.9 16.6
2014-Apr-22 07:00N 41°06' E 011°00'2322.5 1011.8 16.4
2014-Apr-22 06:00N 41°24' E 010°42'2020.1 1011.3 15.6
2014-Apr-22 05:00N 41°42' E 010°30'2727.5 1010.0 15.3
2014-Apr-22 04:00N 42°06' E 010°12'4221.1 1010.4 15.6
2014-Apr-22 02:00N 42°42' E 009°42'2424.4 1009.6 15.3
2014-Apr-22 01:00N 43°06' E 009°36'2020.0 1009.6 15.2
2014-Apr-22 00:00N 43°24' E 009°24'2625.5 1008.9 14.4
2014-Apr-21 23:00N 43°48' E 009°12'1918.5 1009.1 15.0
2014-Apr-21 22:00N 44°06' E 009°06'13 0.4 1009.1 14.4
2014-Apr-20 17:00N 44°18' E 009°00'2020.0 1006.0 15.3
2014-Apr-20 16:00N 44°00' E 009°12'2424.4 1006.0 15.9
2014-Apr-20 15:00N 43°36' E 009°18'2625.5 1006.2 17.3
2014-Apr-20 14:00N 43°12' E 009°30'2020.0 1006.1 16.8
2014-Apr-20 13:00N 42°54' E 009°42'2625.6 1006.7 17.2
2014-Apr-20 12:00N 42°30' E 009°54'2020.1 1007.1 18.4
2014-Apr-20 11:00N 42°12' E 010°06'2727.5 1007.3 17.3
2014-Apr-20 10:00N 41°48' E 010°24'4221.2 1007.3 16.1
2014-Apr-20 08:00N 41°12' E 010°54'2322.5 1006.7 16.5
2014-Apr-20 07:00N 40°54' E 011°12'2322.6 1006.7 16.0
2014-Apr-20 06:00N 40°36' E 011°30'2625.7 1007.0 15.0
2014-Apr-20 05:00N 40°12' E 011°42'2322.7 1006.2 14.3
2014-Apr-20 04:00N 39°54' E 012°00'2322.7 1006.1 14.0
2014-Apr-20 03:00N 39°36' E 012°18'2020.2 1005.2 14.1
2014-Apr-20 02:00N 39°18' E 012°30'2322.8 1004.9 15.6
2014-Apr-20 01:00N 39°00' E 012°48'4321.5 1004.0 16.3
2014-Apr-19 23:00N 38°24' E 013°18'19 4.7 1005.3 21.2
2014-Apr-19 19:00N 38°06' E 013°24'0 0.0 1008.2 19.0
2014-Apr-19 17:00N 38°06' E 013°24'1918.6 1008.5 19.8
2014-Apr-19 16:00N 38°24' E 013°18'5125.3 1008.4 18.3
2014-Apr-19 14:00N 39°06' E 012°42'2020.3 1005.8 16.1
2014-Apr-19 13:00N 39°24' E 012°30'2322.7 1005.9 16.3
2014-Apr-19 12:00N 39°42' E 012°12'2827.7 1005.3 16.0
2014-Apr-19 11:00N 40°06' E 011°54'2322.6 1005.1 17.0
2014-Apr-19 10:00N 40°24' E 011°36'2827.6 1004.5 16.3
2014-Apr-19 09:00N 40°48' E 011°18'2322.6 1004.3 16.2
2014-Apr-19 08:00N 41°06' E 011°00'2827.5 1003.2 16.2
2014-Apr-19 07:00N 41°30' E 010°42'2222.5 1000.9 16.2
2014-Apr-19 06:00N 41°48' E 010°24'2020.1 998.3 15.9
2014-Apr-19 05:00N 42°06' E 010°12'2222.4 998.0 15.7
2014-Apr-19 04:00N 42°24' E 009°54'1918.5 998.2 15.7
2014-Apr-19 03:00N 42°42' E 009°48'2625.6 999.8 14.8
2014-Apr-19 02:00N 43°06' E 009°36'2020.0 1000.0 14.9
2014-Apr-19 01:00N 43°24' E 009°24'1918.5 999.9 14.4
2014-Apr-19 00:00N 43°42' E 009°18'2625.5 1001.2 14.3
2014-Apr-18 23:00N 44°06' E 009°06'2019.9 1002.3 14.4
2014-Apr-18 22:00N 44°24' E 008°54'7 1.2 1003.5 14.2
2014-Apr-18 16:00N 44°18' E 009°00'2222.2 1007.3 15.3
2014-Apr-18 15:00N 44°00' E 009°18'2727.3 1007.7 15.4
2014-Apr-18 14:00N 43°36' E 009°36'2222.2 1008.1 15.6
2014-Apr-18 13:00N 43°18' E 009°54'2424.4 1008.3 15.7
2014-Apr-18 12:00N 42°54' E 010°00'2222.3 1010.1 17.4
2014-Apr-18 11:00N 42°36' E 010°18'2525.3 1011.1 17.2
2014-Apr-18 10:00N 42°18' E 010°42'3029.9 1010.9 15.8
2014-Apr-18 09:00N 41°54' E 011°06'2222.5 1010.5 15.5
2014-Apr-18 08:00N 41°36' E 011°24'2525.4 1010.8 14.6
2014-Apr-18 07:00N 41°18' E 011°48'2322.5 1010.2 13.5
2014-Apr-18 06:00N 41°00' E 012°06'2625.6 1010.0 12.8
2014-Apr-18 05:00N 40°42' E 012°30'2322.6 1009.7 12.8
2014-Apr-18 04:00N 40°24' E 012°48'4321.3 1009.5 13.7
2014-Apr-18 02:00N 39°48' E 013°18'1818.0 1011.1 12.6
2014-Apr-18 01:00N 39°30' E 013°18'2424.0 1011.2 12.6
2014-Apr-18 00:00N 39°06' E 013°18'2424.5 1011.9 12.8
2014-Apr-17 23:00N 38°42' E 013°24'1818.0 1012.3 12.1
2014-Apr-17 22:00N 38°24' E 013°24'11 1.6 1012.1 12.2
2014-Apr-17 15:00N 38°30' E 013°12'2827.8 1014.0 16.8
2014-Apr-17 14:00N 38°54' E 012°54'2322.8 1014.3 15.4
2014-Apr-17 13:00N 39°12' E 012°36'2827.7 1015.0 16.3
2014-Apr-17 12:00N 39°36' E 012°18'2322.7 1014.8 13.7
2014-Apr-17 11:00N 39°54' E 012°00'2827.7 1015.6 14.4
2014-Apr-17 10:00N 40°18' E 011°42'2322.6 1017.0 15.3
2014-Apr-17 09:00N 40°36' E 011°24'2827.6 1018.1 14.1
2014-Apr-17 08:00N 41°00' E 011°06'2322.5 1017.7 13.4
2014-Apr-17 07:00N 41°18' E 010°48'2827.5 1018.0 13.6
2014-Apr-17 06:00N 41°42' E 010°30'2222.4 1017.8 13.6
2014-Apr-17 05:00N 42°00' E 010°12'2222.4 1018.9 14.1
2014-Apr-17 04:00N 42°18' E 009°54'2424.4 1019.8 13.7
2014-Apr-17 03:00N 42°42' E 009°48'2625.6 1020.5 13.6
2014-Apr-17 02:00N 43°06' E 009°36'2727.3 1021.1 13.7
2014-Apr-17 01:00N 43°30' E 009°18'2424.4 1021.1 14.2
2014-Apr-17 00:00N 43°54' E 009°12'2625.5 1021.2 14.4
2014-Apr-16 23:00N 44°18' E 009°00'7 1.1 1021.2 14.0
2014-Apr-16 16:00N 44°24' E 008°54'2019.9 1019.8 17.2
2014-Apr-16 15:00N 44°06' E 009°06'2625.5 1019.7 15.7
2014-Apr-16 14:00N 43°42' E 009°18'2625.5 1020.3 16.0
2014-Apr-16 13:00N 43°18' E 009°30'2625.5 1020.8 16.1
2014-Apr-16 12:00N 42°54' E 009°42'2625.6 1020.5 14.8
2014-Apr-16 11:00N 42°30' E 009°54'2020.1 1019.9 15.2
2014-Apr-16 10:00N 42°12' E 010°06'2727.5 1019.1 14.1
2014-Apr-16 09:00N 41°48' E 010°24'2222.5 1018.7 14.1
2014-Apr-16 08:00N 41°30' E 010°42'2827.5 1016.5 12.9
2014-Apr-16 07:00N 41°06' E 011°00'2322.6 1015.0 13.5
2014-Apr-16 06:00N 40°48' E 011°18'2020.2 1014.2 13.6
2014-Apr-16 05:00N 40°30' E 011°30'2322.6 1012.8 13.3
2014-Apr-16 04:00N 40°12' E 011°48'2322.7 1012.3 13.5
2014-Apr-16 03:00N 39°54' E 012°06'2625.7 1013.0 13.0
2014-Apr-16 02:00N 39°30' E 012°18'2322.8 1012.3 13.6
2014-Apr-16 01:00N 39°12' E 012°36'2020.3 1010.8 13.2
2014-Apr-16 00:00N 38°54' E 012°48'2322.8 1010.6 13.6
2014-Apr-15 23:00N 38°36' E 013°06'2322.9 1009.9 15.8
2014-Apr-15 22:00N 38°18' E 013°24'1212.0 1008.8 17.0
2014-Apr-15 21:00N 38°06' E 013°24'6 1.2 1011.5 18.0
2014-Apr-15 16:00N 38°12' E 013°24'2020.3 1010.1 20.5
2014-Apr-15 15:00N 38°30' E 013°12'2827.8 1008.8 16.8
2014-Apr-15 14:00N 38°54' E 012°54'2322.8 1009.3 16.0
2014-Apr-15 13:00N 39°12' E 012°36'2827.7 1009.6 16.4
2014-Apr-15 12:00N 39°36' E 012°18'2322.7 1009.9 16.5
2014-Apr-15 11:00N 39°54' E 012°00'2827.7 1009.4 16.7
2014-Apr-15 10:00N 40°18' E 011°42'2322.6 1010.4 17.5
2014-Apr-15 09:00N 40°36' E 011°24'2020.2 1011.1 18.2
2014-Apr-15 08:00N 40°54' E 011°12'2322.5 1010.7 17.0
2014-Apr-15 07:00N 41°12' E 010°54'2827.5 1010.2 16.0
2014-Apr-15 06:00N 41°36' E 010°36'2222.5 1009.7 15.2
2014-Apr-15 05:00N 41°54' E 010°18'2020.1 1010.0 15.6
2014-Apr-15 04:00N 42°12' E 010°06'2222.4 1009.9 15.7
2014-Apr-15 03:00N 42°30' E 009°48'2424.4 1010.5 15.6
2014-Apr-15 02:00N 42°54' E 009°42'2020.0 1011.1 15.6
2014-Apr-15 01:00N 43°12' E 009°30'2625.5 1011.7 15.9
2014-Apr-15 00:00N 43°36' E 009°18'1918.5 1012.1 15.2
2014-Apr-14 23:00N 43°54' E 009°12'2625.5 1012.7 15.2
2014-Apr-14 22:00N 44°18' E 009°00'0 0.0 1012.5 15.5
2014-Apr-13 17:00N 44°18' E 009°00'   1016.3 16.4

Dump ship's entire track history

sailing weather and tide predictions

Ship Status Report: callsign BAREU51